Regional Weather Roundup
Issued by NWS

Home | Current Version | Previous Version | Text Only | Print | Product List | Glossary Off
Versions: 1 2 3 4 5 6 7 8 9 10 11 12 13 14 15 16 17 18 19 20 21 22 23 24 25 26 27 28 29 30 31 32 33 34 35 36 37 38 39 40 41 42 43 44 45 46 47 48 49 50

708
ASUS43 KMKX 081400
RWRWI

WISCONSIN REGIONAL WEATHER ROUNDUP
NATIONAL WEATHER SERVICE MILWAUKEE/SULLIVAN WI
800 AM CST MON FEB 08 2016

NOTE: "FAIR" INDICATES FEW OR NO CLOUDS BELOW 12,000 FEET WITH NO
SIGNIFICANT WEATHER AND/OR OBSTRUCTIONS TO VISIBILITY.

WIZ001-002-006>008-014>016-023>028-081500-
NORTHWEST WISCONSIN

CITY           SKY/WX    TMP DP  RH WIND       PRES   REMARKS
SUPERIOR ARPT  FLURRIES  11   4  73 NW12      29.86R WCI  -3
ASHLAND        LGT SNOW  18  13  80 NW13      29.79R WCI   5
HAYWARD        LGT SNOW  12   7  80 N9        29.78R WCI   0
SIREN          CLOUDY    11   4  74 NW12G18   29.85R WCI  -3
CUMBERLAND     LGT SNOW  12   7  79 NW16      29.78R WCI  -4
RICE LAKE      LGT SNOW  13   8  81 NW8G16    29.80R WCI   1
CHETEK         LGT SNOW  12   8  82 NW9       29.77R WCI   0
LADYSMITH      CLOUDY    15  10  81 NW16G23   29.73R WCI  -1
EAU CLAIRE     LGT SNOW  14   7  73 NW13G20   29.78R WCI   0
MENOMONIE      LGT SNOW  14   7  73 NW16G22   29.79R WCI  -2
NEW RICHMOND   CLOUDY    11   5  74 NW18G24   29.84R WCI  -7
OSCEOLA        CLOUDY    12   5  73 NW13G24   29.89R WCI  -3
$$

WIZ003>005-009-010-017-018-081500-
NORTH CENTRAL WISCONSIN

CITY           SKY/WX    TMP DP  RH WIND       PRES   REMARKS
MANITOWISH WTR CLOUDY    18  16  92 N3        29.65R
ARBOR VITAE    CLOUDY    20  16  84 N9        29.63R WCI  10
WOODRUFF       CLOUDY    20  16  84 N9        29.63R WCI  10
RHINELANDER    CLOUDY    21  16  81 VRB6      29.62R WCI  13
EAGLE RIVER    LGT SNOW  20  15  81 N13       29.61R WCI   7
LAND O LAKES   CLOUDY    20  17  88 N9        29.63R WCI   9
PHILLIPS       CLOUDY    19  16  86 N6        29.66R FOG     WCI  11
TOMAHAWK       LGT SNOW  22  19  87 NW9       29.63R WCI  12
MEDFORD        CLOUDY    19  16  89 NW12      29.64R WCI   6
MERRILL        CLOUDY    25  20  82 N10G20    29.62R WCI  15
$$

WIZ029-030-035-036-043>047-081500-
CENTRAL WISCONSIN

CITY           SKY/WX    TMP DP  RH WIND       PRES   REMARKS
WAUSAU         CLOUDY    24  19  81 NW8       29.60S WCI  15
MOSINEE        CLOUDY    21  19  93 NW10      29.62S WCI  10
MARSHFIELD     CLOUDY    19  12  74 NW17      29.64R WCI   4
STEVENS POINT  CLOUDY    19  15  82 W6G16     29.64S WCI  11
WAUPACA        CLOUDY    27  19  74 W8        29.63R WCI  18
WAUTOMA        NOT AVBL
WISC RAPIDS    CLOUDY    20  12  71 NW14      29.68R WCI   7
CAMP DOUGLAS   NOT AVBL
$$

WIZ011>013-019>022-031-037>040-048>050-081500-
NORTHEAST WISCONSIN

CITY           SKY/WX    TMP DP  RH WIND       PRES   REMARKS
ANTIGO         CLOUDY    24  22  91 NW7       29.58S WCI  16
SHAWANO        CLOUDY    32  25  74 W6        29.60R WCI  26
OCONTO         CLOUDY    32  32 100 NW5       29.58R WCI  27
STURGEON BAY   CLOUDY    32  27  80 W3        29.60R
GREEN BAY      FLURRIES  30  27  88 W10       29.59R WCI  21
MANITOWOC      NOT AVBL
APPLETON       CLOUDY    27  21  80 W12       29.59R WCI  16
CLINTONVILLE   CLOUDY    30  23  74 NW9       29.61R WCI  22
OSHKOSH        CLOUDY    26  19  74 W14       29.61R WCI  14
$$

WIZ032>034-041-042-053>061-081500-
SOUTHWEST WISCONSIN

CITY           SKY/WX    TMP DP  RH WIND       PRES   REMARKS
LA CROSSE      FLURRIES  18  10  71 NW17      29.77R WCI   3
SPARTA         PTCLDY    18  13  80 W10       29.74R WCI   6
VIROQUA        CLOUDY    16  12  86 NW15      29.69R WCI   1
BOSCOBEL       LGT SNOW  19  13  77 VRB5      29.75R WCI  12
PRAIRIE DU CHI MIX PCPN  18  10  73 NW10      29.76R WCI   6
PLATTEVILLE    CLOUDY    18  16  90 NW14      29.69S WCI   4
$$

WIZ056-057-062-063-064-067-068-081500-
SOUTH CENTRAL WISCONSIN

CITY           SKY/WX    TMP DP  RH WIND       PRES   REMARKS
REEDSBURG      FLURRIES  19  14  82 NW12      29.68S WCI   6
BARABOO/DELLS  LGT SNOW  19  14  79 NW12G18   29.67R WCI   7
LONE ROCK      NOT AVBL
MINERAL POINT  LGT SNOW  21  18  86 NW13      29.67R WCI   9
MADISON        FLURRIES  22  17  81 NW8       29.65R WCI  12
MIDDLETON      CLOUDY    23  19  83 NW14      29.66R WCI  10
WATERTOWN      CLOUDY    27  24  89 NW13      29.62R WCI  16
MONROE         LGT SNOW  23  19  86 NW12      29.65R WCI  12
JANESVILLE     CLOUDY    27  21  80 W13       29.64R WCI  16
$$

WIZ051-052-058>065-066-070>072-081500-
SOUTHEAST WISCONSIN

CITY           SKY/WX    TMP DP  RH WIND       PRES   REMARKS
MILWAUKEE      LGT SNOW  30  28  92 W7        29.61R VSB 3/4 WCI  23
WAUKESHA       CLOUDY    28  27  93 W10       29.61R WCI  19
MILWAUKEE/TIMM NOT AVBL
RACINE         CLOUDY    31  26  82 W8        29.62R WCI  23
BURLINGTON     CLOUDY    28  26  96 W7        29.62R WCI  20
KENOSHA        CLOUDY    29  26  89 W12       29.61S FOG     WCI  19
FOND DU LAC    CLOUDY    27  20  75 NW12      29.62R WCI  17
SHEBOYGAN      CLOUDY    29  23  78 NW12      29.59S WCI  19
WEST BEND      CLOUDY    30  23  74 NW10G18   29.60R WCI  21
JUNEAU         CLOUDY    26  21  83 NW8       29.63R WCI  17
$$

LSZ147-162-081500-
LAKE SUPERIOR

STATION/POSITION TIME  TEMP    WIND        PRES    WAVE
                       AIR SEA DIR/SP/G            HT/PER
                 (UTC) (F)     (DEG/KT/KT) (MB)    (FT/S)
DEVILS ISLAND    1300   17     340/ 20/ 22 1009.6R
PORT WING        1340   18     310/ 16/ 19 1010.2R
SAXON HARBOR     1340   21                 1007.8R
$$

LMZ867-665-643>646-081500-
LAKE MICHIGAN

STATION/POSITION TIME  TEMP    WIND        PRES    WAVE
                       AIR SEA DIR/SP/G            HT/PER
                 (UTC) (F)     (DEG/KT/KT) (MB)    (FT/S)
CHAMBERS ISLAND  1300   32     260/  2/  4 1002.0R
NORTHPORT PIER   1300   33      CALM  /  3 1001.7S
KEWAUNEE LAKESHO 1300   33     290/  2/  7 1000.9R
SHEBOYGAN LAKESH 1300   32     290/  8/ 10 1002.7R
PORT WASHINGTON  1300   32     300/  7/ 10 1003.0R
MILWAUKEE LAKESH 1310   32     300/  5/  6   N/A
KENOSHA   LAKESH 1300   31     260/ 11/ 17 1002.7R
$$

TC  - TEMPERATURE IN CELSIUS
VSB - VISIBILITY IN STATUTE MILES
WCI - WIND CHILL INDEX
HX  - HEAT INDEX





USA.gov is the U.S. government's official web portal to all federal, state and local government web resources and services.